AMX249T KMFE-MMUN

Flight info

Callsign AMX249T
Flight time 1h 54m
Altitude 35000
Route MFE DCT REX UJ2 MAM UT22 VESKO UT11 URTEL UT34 VOMAR VOMAR1A
Aircraft B738/M-SDE2E3FGHIRWXY/LB1

Departure

Time 2026-04-28 16:37
Airport McAllen Miller International Airport (KMFE)

Arrival

Time 2026-04-28 18:32
Airport Cancún International Airport (MMUN)
Time Latitude Longitude Altitude Speed Heading
2026-04-28 16:16 26.17951 -98.23936 107 ft 0 kts 308°
2026-04-28 16:29 26.17952 -98.23937 107 ft 2 kts 320°
2026-04-28 16:29 26.17932 -98.23907 107 ft 3 kts 264°
2026-04-28 16:30 26.17937 -98.23887 106 ft 3 kts 234°
2026-04-28 16:30 26.17943 -98.23879 107 ft 2 kts 231°
2026-04-28 16:30 26.17943 -98.23878 106 ft 1 kts 231°
2026-04-28 16:32 26.17934 -98.23891 107 ft 4 kts 230°
2026-04-28 16:33 26.17909 -98.23923 105 ft 7 kts 232°
2026-04-28 16:33 26.17898 -98.23938 106 ft 8 kts 232°
2026-04-28 16:33 26.17846 -98.24048 105 ft 11 kts 278°
2026-04-28 16:33 26.17897 -98.24115 107 ft 12 kts 320°
2026-04-28 16:34 26.17960 -98.24172 110 ft 11 kts 321°
2026-04-28 16:34 26.18023 -98.24229 110 ft 13 kts 321°
2026-04-28 16:34 26.18097 -98.24296 111 ft 15 kts 321°
2026-04-28 16:34 26.18175 -98.24368 110 ft 14 kts 320°
2026-04-28 16:35 26.18252 -98.24438 112 ft 15 kts 321°
2026-04-28 16:35 26.18323 -98.24505 113 ft 11 kts 311°
2026-04-28 16:35 26.18310 -98.24585 113 ft 9 kts 235°
2026-04-28 16:35 26.18300 -98.24602 113 ft 1 kts 234°
2026-04-28 16:36 26.18294 -98.24607 114 ft 1 kts 220°
2026-04-28 16:36 26.18282 -98.24612 115 ft 2 kts 188°
2026-04-28 16:36 26.18266 -98.24604 115 ft 0 kts 144°
2026-04-28 16:36 26.18261 -98.24600 111 ft 11 kts 143°
2026-04-28 16:37 26.17967 -98.24337 112 ft 96 kts 141°
2026-04-28 16:37 26.17248 -98.23693 113 ft 167 kts 142°
2026-04-28 16:37 26.16264 -98.22796 720 ft 189 kts 142°
2026-04-28 16:38 26.14136 -98.21100 2480 ft 179 kts 148°
2026-04-28 16:38 26.13078 -98.20422 3103 ft 176 kts 164°
2026-04-28 16:38 26.11891 -98.20537 3746 ft 175 kts 194°
2026-04-28 16:38 26.10700 -98.20906 4386 ft 180 kts 191°
2026-04-28 16:39 26.09474 -98.21248 5024 ft 183 kts 192°
2026-04-28 16:39 26.08241 -98.21597 5633 ft 182 kts 191°
2026-04-28 16:39 26.07013 -98.21943 6246 ft 182 kts 192°
2026-04-28 16:39 26.05773 -98.22250 6794 ft 187 kts 187°
2026-04-28 16:40 26.04378 -98.22400 6985 ft 214 kts 182°
2026-04-28 16:40 26.02817 -98.22624 7179 ft 241 kts 194°
2026-04-28 16:40 26.01118 -98.22829 7603 ft 255 kts 168°
2026-04-28 16:40 25.99566 -98.21837 8269 ft 269 kts 136°
2026-04-28 16:41 25.98710 -98.19935 8911 ft 288 kts 109°
2026-04-28 16:41 25.98340 -98.17723 9589 ft 294 kts 106°
2026-04-28 16:41 25.97916 -98.15479 10198 ft 300 kts 108°
2026-04-28 16:41 25.97379 -98.13165 10400 ft 320 kts 110°
2026-04-28 16:42 25.96724 -98.10756 10565 ft 340 kts 112°
2026-04-28 16:42 25.95948 -98.08176 10868 ft 354 kts 113°
2026-04-28 16:42 25.95118 -98.05578 11395 ft 359 kts 113°
2026-04-28 16:42 25.94252 -98.02945 11900 ft 366 kts 113°
2026-04-28 16:43 25.93360 -98.00280 12488 ft 370 kts 113°
2026-04-28 16:43 25.92463 -97.97623 13088 ft 374 kts 113°
2026-04-28 16:43 25.91544 -97.94910 13730 ft 377 kts 112°
2026-04-28 16:43 25.90616 -97.92173 14320 ft 381 kts 112°
2026-04-28 16:44 25.89677 -97.89410 14896 ft 384 kts 112°
2026-04-28 16:44 25.88729 -97.86619 15469 ft 388 kts 112°
2026-04-28 16:44 25.87773 -97.83799 16029 ft 392 kts 112°
2026-04-28 16:44 25.86810 -97.80958 16588 ft 396 kts 111°
2026-04-28 16:45 25.85835 -97.78084 17177 ft 398 kts 111°
2026-04-28 16:45 25.84851 -97.75182 17716 ft 402 kts 111°
2026-04-28 16:45 25.83862 -97.72268 18280 ft 405 kts 111°
2026-04-28 16:45 25.82865 -97.69330 18802 ft 409 kts 111°
2026-04-28 16:46 25.81855 -97.66361 19280 ft 413 kts 111°
2026-04-28 16:46 25.80836 -97.63366 19785 ft 416 kts 111°
2026-04-28 16:46 25.79808 -97.60344 20258 ft 420 kts 111°
2026-04-28 16:46 25.78769 -97.57292 20743 ft 423 kts 111°
2026-04-28 16:47 25.77725 -97.54234 21217 ft 426 kts 111°
2026-04-28 16:47 25.76565 -97.51196 21636 ft 430 kts 118°
2026-04-28 16:47 25.75082 -97.48303 22060 ft 432 kts 121°
2026-04-28 16:47 25.73540 -97.45472 22447 ft 436 kts 122°
2026-04-28 16:48 25.71960 -97.42597 22846 ft 439 kts 122°
2026-04-28 16:48 25.70369 -97.39685 23234 ft 442 kts 122°
2026-04-28 16:48 25.68786 -97.36756 23622 ft 445 kts 121°
2026-04-28 16:48 25.67200 -97.33800 24015 ft 447 kts 121°
2026-04-28 16:49 25.65609 -97.30820 24358 ft 451 kts 121°
2026-04-28 16:49 25.64006 -97.27810 24694 ft 454 kts 121°
2026-04-28 16:49 25.62393 -97.24784 25005 ft 458 kts 121°
2026-04-28 16:49 25.60767 -97.21738 25350 ft 460 kts 121°
2026-04-28 16:50 25.59134 -97.18680 25705 ft 462 kts 121°
2026-04-28 16:50 25.57489 -97.15602 26000 ft 466 kts 121°
2026-04-28 16:50 25.55832 -97.12503 26301 ft 469 kts 121°
2026-04-28 16:50 25.54161 -97.09385 26581 ft 473 kts 121°
2026-04-28 16:51 25.52477 -97.06246 26885 ft 475 kts 121°
2026-04-28 16:51 25.50783 -97.03093 27175 ft 478 kts 121°
2026-04-28 16:51 25.49079 -96.99924 27452 ft 480 kts 121°
2026-04-28 16:51 25.47369 -96.96744 27720 ft 483 kts 121°
2026-04-28 16:52 25.45644 -96.93538 27996 ft 486 kts 121°
2026-04-28 16:52 25.43906 -96.90309 28259 ft 489 kts 121°
2026-04-28 16:52 25.42161 -96.87070 28511 ft 491 kts 122°
2026-04-28 16:52 25.40407 -96.83816 28768 ft 494 kts 121°
2026-04-28 16:53 25.38645 -96.80548 29019 ft 496 kts 122°
2026-04-28 16:53 25.36873 -96.77265 29267 ft 498 kts 122°
2026-04-28 16:53 25.35092 -96.73968 29505 ft 500 kts 122°
2026-04-28 16:53 25.33302 -96.70657 29735 ft 503 kts 122°
2026-04-28 16:54 25.31501 -96.67329 30041 ft 503 kts 122°
2026-04-28 16:54 25.29709 -96.64017 30384 ft 503 kts 122°
2026-04-28 16:54 25.27914 -96.60701 30687 ft 503 kts 121°
2026-04-28 16:54 25.26720 -96.58499 30851 ft 505 kts 121°
2026-04-28 16:55 25.24323 -96.54079 31177 ft 506 kts 121°
2026-04-28 16:55 25.22491 -96.50705 31490 ft 506 kts 121°
2026-04-28 16:55 25.20680 -96.47371 31808 ft 506 kts 121°
2026-04-28 16:55 25.18886 -96.44071 32074 ft 507 kts 121°
2026-04-28 16:56 25.17066 -96.40724 32282 ft 510 kts 120°
2026-04-28 16:56 25.15239 -96.37367 32550 ft 510 kts 120°
2026-04-28 16:56 25.13412 -96.34011 32852 ft 510 kts 120°
2026-04-28 16:56 25.11586 -96.30661 33089 ft 511 kts 120°
2026-04-28 16:57 25.09753 -96.27300 33367 ft 511 kts 120°
2026-04-28 16:57 25.07916 -96.23938 33605 ft 512 kts 120°
2026-04-28 16:57 25.06074 -96.20565 33814 ft 514 kts 119°
2026-04-28 16:57 25.04228 -96.17188 34083 ft 514 kts 119°
2026-04-28 16:58 25.02384 -96.13816 34393 ft 513 kts 119°
2026-04-28 16:58 25.00546 -96.10457 34746 ft 510 kts 119°
2026-04-28 16:58 24.98714 -96.07113 35013 ft 510 kts 119°
2026-04-28 16:59 24.95019 -96.00372 34982 ft 513 kts 119°
2026-04-28 16:59 24.91338 -95.93680 34972 ft 506 kts 118°
2026-04-28 17:00 24.87691 -95.87057 35003 ft 506 kts 119°
2026-04-28 17:00 24.84035 -95.80425 34987 ft 507 kts 119°
2026-04-28 17:01 24.80374 -95.73789 34986 ft 507 kts 118°
2026-04-28 17:01 24.76704 -95.67147 35004 ft 507 kts 119°
2026-04-28 17:02 24.73036 -95.60503 34983 ft 508 kts 118°
2026-04-28 17:02 24.69372 -95.53863 35002 ft 507 kts 118°
2026-04-28 17:03 24.63874 -95.43909 34994 ft 507 kts 118°
2026-04-28 17:03 24.60210 -95.37294 34990 ft 506 kts 118°
2026-04-28 17:04 24.54730 -95.27408 35010 ft 507 kts 118°
2026-04-28 17:05 24.49190 -95.17436 34991 ft 507 kts 118°
2026-04-28 17:06 24.43691 -95.07571 34998 ft 507 kts 118°
2026-04-28 17:06 24.38153 -94.97690 35003 ft 506 kts 118°
2026-04-28 17:07 24.34470 -94.91121 34994 ft 505 kts 118°
2026-04-28 17:07 24.30789 -94.84565 35007 ft 505 kts 118°
2026-04-28 17:08 24.27105 -94.78016 34998 ft 504 kts 118°
2026-04-28 17:08 24.23428 -94.71487 34999 ft 503 kts 118°
2026-04-28 17:09 24.19748 -94.64957 35007 ft 504 kts 118°
2026-04-28 17:09 24.16065 -94.58433 35025 ft 503 kts 118°
2026-04-28 17:10 24.13050 -94.51649 35048 ft 497 kts 107°
2026-04-28 17:10 24.10519 -94.44611 35041 ft 497 kts 107°
2026-04-28 17:11 24.07974 -94.37581 35044 ft 497 kts 107°
2026-04-28 17:11 24.05363 -94.30571 35035 ft 498 kts 108°
2026-04-28 17:12 24.02716 -94.23527 35037 ft 498 kts 107°
2026-04-28 17:12 24.00076 -94.16516 35040 ft 499 kts 107°
2026-04-28 17:13 23.97430 -94.09495 35035 ft 499 kts 107°
2026-04-28 17:13 23.94796 -94.02512 35039 ft 500 kts 108°
2026-04-28 17:14 23.92131 -93.95450 35037 ft 500 kts 108°
2026-04-28 17:14 23.89491 -93.88465 35033 ft 500 kts 108°
2026-04-28 17:15 23.86828 -93.81437 35041 ft 501 kts 108°
2026-04-28 17:15 23.84164 -93.74415 35040 ft 500 kts 108°
2026-04-28 17:16 23.81503 -93.67406 35034 ft 500 kts 108°
2026-04-28 17:16 23.79291 -93.61585 35034 ft 499 kts 108°
2026-04-28 17:17 23.76632 -93.54592 35034 ft 498 kts 108°
2026-04-28 17:17 23.73957 -93.47577 35038 ft 496 kts 108°
2026-04-28 17:18 23.71304 -93.40633 35033 ft 495 kts 108°
2026-04-28 17:18 23.68655 -93.33710 35032 ft 494 kts 107°
2026-04-28 17:19 23.66010 -93.26811 35041 ft 492 kts 108°
2026-04-28 17:19 23.63390 -93.19972 35045 ft 491 kts 107°
2026-04-28 17:20 23.61182 -93.14219 35046 ft 490 kts 107°
2026-04-28 17:20 23.58125 -93.06263 35048 ft 489 kts 107°
2026-04-28 17:21 23.55484 -92.99414 35051 ft 490 kts 107°
2026-04-28 17:22 23.51520 -92.89143 35059 ft 490 kts 107°
2026-04-28 17:22 23.48870 -92.82293 35054 ft 491 kts 107°
2026-04-28 17:23 23.44889 -92.72030 35055 ft 490 kts 107°
2026-04-28 17:23 23.42235 -92.65196 35054 ft 490 kts 107°
2026-04-28 17:24 23.39579 -92.58369 35056 ft 490 kts 107°
2026-04-28 17:24 23.36919 -92.51538 35057 ft 489 kts 107°
2026-04-28 17:25 23.32923 -92.41299 35056 ft 489 kts 107°
2026-04-28 17:26 23.30264 -92.34495 35055 ft 489 kts 107°
2026-04-28 17:26 23.27599 -92.27688 35060 ft 489 kts 107°
2026-04-28 17:27 23.24933 -92.20889 35067 ft 489 kts 107°
2026-04-28 17:27 23.22263 -92.14092 35061 ft 489 kts 107°
2026-04-28 17:28 23.19590 -92.07294 35065 ft 489 kts 108°
2026-04-28 17:28 23.15576 -91.97102 35064 ft 489 kts 107°
2026-04-28 17:29 23.12915 -91.90362 35059 ft 488 kts 107°
2026-04-28 17:30 23.08887 -91.80203 35056 ft 487 kts 107°
2026-04-28 17:30 23.04868 -91.70080 35061 ft 486 kts 107°
2026-04-28 17:31 23.00859 -91.59996 35060 ft 484 kts 107°
2026-04-28 17:32 22.96853 -91.49943 35055 ft 483 kts 107°
2026-04-28 17:32 22.94183 -91.43258 35057 ft 483 kts 107°
2026-04-28 17:33 22.91514 -91.36581 35054 ft 482 kts 107°
2026-04-28 17:33 22.89277 -91.30989 35058 ft 482 kts 107°
2026-04-28 17:34 22.86170 -91.23232 35056 ft 482 kts 107°
2026-04-28 17:34 22.83496 -91.16566 35057 ft 482 kts 107°
2026-04-28 17:35 22.80818 -91.09900 35056 ft 482 kts 107°
2026-04-28 17:35 22.78138 -91.03239 35058 ft 482 kts 107°
2026-04-28 17:36 22.75455 -90.96580 35056 ft 482 kts 107°
2026-04-28 17:36 22.72770 -90.89928 35057 ft 482 kts 107°
2026-04-28 17:37 22.70084 -90.83278 35057 ft 482 kts 107°
2026-04-28 17:37 22.67396 -90.76635 35054 ft 481 kts 107°
2026-04-28 17:38 22.64706 -90.69998 35057 ft 481 kts 107°
2026-04-28 17:38 22.62017 -90.63369 35055 ft 481 kts 107°
2026-04-28 17:39 22.59326 -90.56742 35059 ft 480 kts 107°
2026-04-28 17:40 22.55294 -90.46837 35050 ft 479 kts 107°
2026-04-28 17:40 22.52633 -90.40228 35046 ft 477 kts 104°
2026-04-28 17:41 22.51122 -90.33393 35056 ft 463 kts 91°
2026-04-28 17:41 22.50151 -90.26525 35045 ft 462 kts 91°
2026-04-28 17:42 22.49166 -90.19652 35045 ft 462 kts 91°
2026-04-28 17:42 22.48147 -90.12802 35046 ft 462 kts 92°
2026-04-28 17:43 22.47112 -90.05990 35045 ft 461 kts 92°
2026-04-28 17:43 22.46061 -89.99102 35049 ft 461 kts 92°
2026-04-28 17:44 22.45022 -89.92313 35047 ft 461 kts 92°
2026-04-28 17:44 22.43973 -89.85470 35047 ft 461 kts 92°
2026-04-28 17:45 22.42923 -89.78636 35048 ft 461 kts 92°
2026-04-28 17:45 22.41870 -89.71804 35047 ft 461 kts 92°
2026-04-28 17:46 22.40814 -89.64972 35046 ft 461 kts 92°
2026-04-28 17:46 22.39754 -89.58136 35053 ft 461 kts 92°
2026-04-28 17:47 22.38689 -89.51282 35058 ft 462 kts 92°
2026-04-28 17:47 22.37623 -89.44437 35053 ft 462 kts 92°
2026-04-28 17:48 22.36552 -89.37593 35055 ft 463 kts 92°
2026-04-28 17:48 22.35476 -89.30736 35056 ft 463 kts 92°
2026-04-28 17:49 22.34397 -89.23868 35058 ft 464 kts 93°
2026-04-28 17:49 22.33311 -89.16981 35054 ft 465 kts 93°
2026-04-28 17:50 22.32230 -89.10159 35044 ft 455 kts 93°
2026-04-28 17:50 22.31697 -89.06837 35030 ft 442 kts 93°
2026-04-28 17:50 22.31185 -89.03656 35032 ft 428 kts 92°
2026-04-28 17:50 22.30685 -89.00544 35034 ft 415 kts 92°
2026-04-28 17:51 22.30194 -88.97456 35047 ft 412 kts 92°
2026-04-28 17:51 22.29231 -88.91339 35070 ft 415 kts 92°
2026-04-28 17:52 22.28256 -88.85178 35065 ft 418 kts 93°
2026-04-28 17:52 22.26771 -88.75905 35065 ft 421 kts 93°
2026-04-28 17:53 22.25768 -88.69672 35056 ft 422 kts 94°
2026-04-28 17:53 22.24755 -88.63395 35053 ft 421 kts 94°
2026-04-28 17:54 22.23758 -88.57230 35047 ft 419 kts 94°
2026-04-28 17:54 22.22756 -88.51053 35049 ft 416 kts 94°
2026-04-28 17:55 22.21760 -88.44918 35049 ft 414 kts 94°
2026-04-28 17:55 22.20767 -88.38818 35073 ft 411 kts 94°
2026-04-28 17:56 22.19776 -88.32745 35073 ft 411 kts 94°
2026-04-28 17:56 22.18945 -88.27662 35078 ft 411 kts 94°
2026-04-28 17:57 22.17950 -88.21581 35080 ft 412 kts 94°
2026-04-28 17:57 22.16949 -88.15487 35086 ft 413 kts 95°
2026-04-28 17:58 22.15942 -88.09373 35089 ft 414 kts 95°
2026-04-28 17:58 22.14933 -88.03256 35094 ft 415 kts 95°
2026-04-28 17:59 22.13901 -87.97113 35079 ft 418 kts 99°
2026-04-28 17:59 22.12769 -87.94205 35098 ft 428 kts 120°
2026-04-28 17:59 22.10845 -87.91759 35078 ft 435 kts 134°
2026-04-28 18:00 22.06340 -87.87381 35086 ft 437 kts 135°
2026-04-28 18:00 22.01810 -87.83021 35082 ft 437 kts 135°
2026-04-28 18:01 21.97290 -87.78580 35095 ft 438 kts 134°
2026-04-28 18:01 21.92812 -87.74152 35091 ft 438 kts 135°
2026-04-28 18:02 21.88338 -87.69738 35086 ft 437 kts 135°
2026-04-28 18:02 21.83856 -87.65327 35095 ft 436 kts 135°
2026-04-28 18:03 21.79367 -87.60912 35084 ft 435 kts 135°
2026-04-28 18:03 21.74900 -87.56519 35076 ft 433 kts 135°
2026-04-28 18:04 21.70477 -87.52173 35074 ft 431 kts 135°
2026-04-28 18:04 21.66064 -87.47840 35087 ft 429 kts 135°
2026-04-28 18:05 21.62336 -87.44299 35082 ft 429 kts 138°
2026-04-28 18:05 21.56866 -87.39661 35085 ft 429 kts 140°
2026-04-28 18:06 21.52148 -87.35687 35090 ft 429 kts 140°
2026-04-28 18:06 21.47490 -87.31712 35086 ft 428 kts 139°
2026-04-28 18:07 21.42837 -87.27729 35084 ft 428 kts 139°
2026-04-28 18:07 21.38140 -87.23731 35088 ft 428 kts 142°
2026-04-28 18:08 21.35603 -87.22088 35087 ft 430 kts 153°
2026-04-28 18:08 21.32910 -87.20715 35097 ft 430 kts 154°
2026-04-28 18:08 21.27496 -87.17929 35105 ft 430 kts 152°
2026-04-28 18:09 21.22332 -87.14767 35068 ft 427 kts 134°
2026-04-28 18:09 21.20440 -87.12377 35113 ft 420 kts 121°
2026-04-28 18:09 21.18852 -87.09735 35096 ft 420 kts 119°
2026-04-28 18:10 21.15696 -87.04488 35088 ft 420 kts 121°
2026-04-28 18:10 21.12462 -86.99307 35088 ft 420 kts 121°
2026-04-28 18:11 21.09198 -86.94094 35098 ft 420 kts 121°
2026-04-28 18:11 21.05956 -86.88908 35086 ft 420 kts 121°
2026-04-28 18:12 21.02018 -86.84334 35110 ft 427 kts 153°
2026-04-28 18:12 20.99180 -86.83289 34745 ft 444 kts 172°
2026-04-28 18:12 20.96022 -86.83094 34110 ft 465 kts 182°
2026-04-28 18:13 20.92727 -86.83233 33208 ft 479 kts 184°
2026-04-28 18:13 20.89382 -86.83467 32351 ft 484 kts 185°
2026-04-28 18:13 20.86003 -86.83737 31495 ft 490 kts 185°
2026-04-28 18:13 20.82588 -86.84020 30612 ft 494 kts 185°
2026-04-28 18:14 20.79214 -86.84308 29782 ft 498 kts 185°
2026-04-28 18:14 20.75762 -86.84608 28916 ft 500 kts 185°
2026-04-28 18:14 20.72285 -86.84915 28039 ft 501 kts 185°
2026-04-28 18:14 20.68803 -86.85225 27172 ft 503 kts 185°
2026-04-28 18:15 20.65313 -86.85540 26298 ft 502 kts 185°
2026-04-28 18:15 20.61827 -86.85855 25415 ft 503 kts 185°
2026-04-28 18:15 20.58348 -86.86217 24533 ft 502 kts 190°
2026-04-28 18:15 20.55047 -86.87343 23625 ft 498 kts 210°
2026-04-28 18:16 20.52292 -86.89509 22767 ft 490 kts 229°
2026-04-28 18:16 20.50371 -86.92454 21899 ft 480 kts 249°
2026-04-28 18:16 20.49485 -86.95821 21026 ft 466 kts 268°
2026-04-28 18:16 20.49703 -86.99160 20164 ft 443 kts 289°
2026-04-28 18:17 20.50988 -87.01999 19710 ft 412 kts 310°
2026-04-28 18:17 20.53033 -87.03982 19182 ft 388 kts 332°
2026-04-28 18:17 20.55510 -87.04949 18439 ft 376 kts 351°
2026-04-28 18:17 20.58084 -87.05263 17712 ft 368 kts 357°
2026-04-28 18:18 20.60624 -87.05430 16952 ft 363 kts 358°
2026-04-28 18:18 20.63123 -87.05563 16207 ft 358 kts 358°
2026-04-28 18:18 20.65570 -87.05689 15469 ft 354 kts 358°
2026-04-28 18:18 20.67231 -87.05774 14961 ft 352 kts 358°
2026-04-28 18:19 20.70485 -87.05944 13958 ft 348 kts 359°
2026-04-28 18:19 20.72866 -87.06027 13221 ft 345 kts
2026-04-28 18:19 20.75244 -87.05680 12427 ft 340 kts 21°
2026-04-28 18:19 20.77310 -87.04516 11924 ft 329 kts 31°
2026-04-28 18:20 20.79219 -87.03286 11669 ft 313 kts 31°
2026-04-28 18:20 20.81020 -87.02114 11409 ft 300 kts 33°
2026-04-28 18:20 20.82732 -87.00917 11148 ft 290 kts 34°
2026-04-28 18:20 20.84398 -86.99730 10891 ft 286 kts 34°
2026-04-28 18:21 20.86061 -86.98542 10473 ft 290 kts 34°
2026-04-28 18:21 20.87736 -86.97346 10051 ft 290 kts 34°
2026-04-28 18:21 20.89438 -86.96136 9608 ft 289 kts 34°
2026-04-28 18:21 20.91092 -86.94969 9196 ft 289 kts 34°
2026-04-28 18:22 20.92774 -86.93789 8770 ft 289 kts 34°
2026-04-28 18:22 20.94579 -86.92867 8310 ft 292 kts 11°
2026-04-28 18:22 20.96611 -86.93034 7895 ft 294 kts 339°
2026-04-28 18:22 20.98223 -86.94280 7499 ft 292 kts 307°
2026-04-28 18:23 20.99230 -86.96111 7306 ft 280 kts 298°
2026-04-28 18:23 21.00120 -86.97934 7059 ft 272 kts 297°
2026-04-28 18:23 21.00975 -86.99697 6821 ft 264 kts 297°
2026-04-28 18:23 21.01813 -87.01432 6601 ft 261 kts 297°
2026-04-28 18:24 21.02644 -87.03155 6372 ft 259 kts 297°
2026-04-28 18:24 21.03201 -87.04309 6239 ft 258 kts 297°
2026-04-28 18:24 21.04296 -87.06567 5935 ft 258 kts 297°
2026-04-28 18:24 21.05094 -87.08241 5721 ft 257 kts 297°
2026-04-28 18:25 21.05917 -87.09946 5482 ft 258 kts 297°
2026-04-28 18:25 21.06731 -87.11635 5253 ft 253 kts 297°
2026-04-28 18:25 21.07579 -87.13278 4875 ft 250 kts 308°
2026-04-28 18:26 21.10571 -87.14255 4106 ft 231 kts 27°
2026-04-28 18:26 21.11726 -87.13141 3740 ft 226 kts 65°
2026-04-28 18:26 21.12254 -87.11567 3390 ft 226 kts 75°
2026-04-28 18:26 21.12619 -87.09933 3055 ft 223 kts 80°
2026-04-28 18:27 21.12923 -87.08307 3033 ft 225 kts 80°
2026-04-28 18:27 21.13223 -87.06666 3002 ft 224 kts 81°
2026-04-28 18:27 21.13519 -87.05052 2983 ft 217 kts 80°
2026-04-28 18:27 21.13802 -87.03512 2976 ft 205 kts 80°
2026-04-28 18:28 21.13895 -87.02022 2932 ft 201 kts 105°
2026-04-28 18:28 21.13245 -87.00703 2765 ft 202 kts 122°
2026-04-28 18:28 21.12497 -86.99447 2516 ft 198 kts 121°
2026-04-28 18:28 21.11751 -86.98224 2241 ft 195 kts 123°
2026-04-28 18:29 21.11006 -86.97024 1986 ft 189 kts 123°
2026-04-28 18:29 21.10314 -86.95913 1740 ft 170 kts 123°
2026-04-28 18:29 21.09692 -86.94917 1513 ft 152 kts 123°
2026-04-28 18:29 21.09132 -86.94018 1352 ft 145 kts 123°
2026-04-28 18:30 21.08575 -86.93123 1146 ft 143 kts 124°
2026-04-28 18:30 21.08391 -86.92826 1085 ft 141 kts 124°
2026-04-28 18:30 21.07486 -86.91392 788 ft 138 kts 124°
2026-04-28 18:30 21.06956 -86.90513 559 ft 141 kts 122°
2026-04-28 18:31 21.06413 -86.89648 399 ft 140 kts 126°
2026-04-28 18:31 21.05869 -86.88775 214 ft 142 kts 123°
2026-04-28 18:31 21.05318 -86.87900 39 ft 139 kts 123°
2026-04-28 18:31 21.04839 -86.87126 37 ft 108 kts 123°
2026-04-28 18:32 21.04576 -86.86708 38 ft 46 kts 124°
2026-04-28 18:32 21.04434 -86.86494 38 ft 26 kts 135°
2026-04-28 18:32 21.04293 -86.86386 37 ft 24 kts 155°
2026-04-28 18:32 21.04155 -86.86315 41 ft 17 kts 152°
2026-04-28 18:33 21.04070 -86.86233 41 ft 16 kts 146°
2026-04-28 18:33 21.03969 -86.86264 52 ft 16 kts 213°
2026-04-28 18:33 21.03874 -86.86331 60 ft 18 kts 213°
2026-04-28 18:33 21.03748 -86.86417 51 ft 25 kts 213°
2026-04-28 18:34 21.03586 -86.86532 42 ft 29 kts 213°
2026-04-28 18:34 21.03424 -86.86648 41 ft 27 kts 214°
2026-04-28 18:34 21.03348 -86.86744 41 ft 17 kts 281°
2026-04-28 18:34 21.03414 -86.86862 41 ft 19 kts 304°
2026-04-28 18:35 21.03466 -86.86944 41 ft 21 kts 303°
2026-04-28 18:35 21.03549 -86.87077 42 ft 17 kts 303°
2026-04-28 18:35 21.03594 -86.87147 42 ft 6 kts 319°
2026-04-28 18:35 21.03636 -86.87134 40 ft 6 kts 32°
2026-04-28 18:36 21.03656 -86.87121 40 ft 0 kts 34°
2026-04-28 18:36 21.03665 -86.87114 41 ft 2 kts 34°
2026-04-28 18:36 21.03675 -86.87107 42 ft 1 kts 34°